Location: Vidojevica
(43.1414°N, 21.5558°E)
Time: 10:07:57
(UTC+02:00)

ISS - Visible Passes

Search period start: 22 August 2018 00:00
Search period end: 01 September 2018 00:00
Orbit: 401 x 409 km, 51.6° (Epoch: 22 August)

Date Brightness Start Highest point End Pass type
(mag) Time Alt. Az. Time Alt. Az. Time Alt. Az.
29 Aug -2.0 05:14:24 10° SSW 05:17:09 26° SE 05:19:56 10° ENE visible
30 Aug -1.2 04:23:26 10° SSE 04:25:18 14° SE 04:27:10 10° E visible
31 Aug -3.5 05:06:24 12° SW 05:09:21 61° SE 05:12:35 10° ENE visible
